JASON-3

Last updated on Mon Sep 21 2026 00:02:46 GMT+0000 (Coordinated Universal Time)

1 41240U 16002A 26263.53672240 -.00000030 00000+0 12618-3 0 9992 2 41240 66.0403 285.3724 0008622 267.2115 92.7917 12.87627654499527
UTC large
Height (km)
Speed (km/s)
/
Latitude / Longitude
Inclination (degrees)
Orbital Period (minutes)
Azimuth
Elevation
Range (km)
Doppler Factor

Next 0 passes for location: London (51.5072 / 0.1276)

No passes found over London.
JASON-3